Location: Skalnate Pleso
(49.1889°N, 20.2450°E)
Time: 22:17:10
(UTC+02:00)

Cosmos 1605 Rocket - Pass Details

Date: 25 February 2020
Orbit: 944 x 1006 km, 82.9° (Epoch: 09 April)

Event Time Altitude Azimuth Distance (km) Brightness Sun altitude
Rises 04:56:26 0° 339° (NNW) 3,676 6.8 -16.1°
Reaches altitude 10° 04:59:49 10° 321° (NW) 2,712 6.0 -15.6°
Enters shadow 05:02:04 16° 300° (WNW) 2,300 5.5 -15.2°
